Flag for Hong Kong Weather past 2 weeks in Hong Kong, Hong Kong

Now
73 °F

Light rain. Passing clouds.


Feels Like: 72 °F
Forecast: 73 / 79 °F
Wind: 18 mph from East

Location: National Airport


UV Index: 7 (High)

Visibility: 4 mi


Pressure: 29.86 "Hg

Humidity: 89%

Dew point: 70 °F

Location of Hong KongLocation

Historic Weather in Hong Kong

°F

Hong Kong temperature yesterday

Maximum temperature yesterday: 84 °F (at 12:30 PM)
Minimum temperature yesterday: 75 °F (at 2:00 AM)
Average temperature yesterday: 79 °F

Past Weeks' High & Low Weather Summary

 TemperatureHumidityPressure
High86 °F (Apr 13, 1:00 PM)94% (Apr 8, 10:30 PM)30.04 "Hg (Apr 8, 10:30 PM)
Low70 °F (Apr 8, 10:30 PM)55% (Apr 13, 1:00 PM)29.80 "Hg (Apr 12, 3:30 PM)
Average77 °F76%29.90 "Hg
* Reported Apr 8 8:00 PM — Apr 23 8:00 PM, Hong Kong, Weather by CustomWeather, © 2014

Note: Actual official high and low records may vary slightly from our data, if they occured in-between our weather recording intervals... More about our weather records

Advertising

Historic Weather Conditions — Data for Previous 24 hours

 ConditionsComfort  
Time TempWeatherWind HumidityBarometerVisibility
8:00 PM
Apr 23
73 °FLight rain. Passing clouds.18 mph89%29.83 "Hg4 mi
7:30 PM73 °FLight rain. Passing clouds.18 mph89%29.83 "Hg4 mi
7:00 PM73 °FLight rain. Passing clouds.21 mph89%29.83 "Hg5 mi
6:30 PM73 °FLight rain. Scattered clouds.21 mph89%29.80 "Hg4 mi
6:00 PM73 °FSleet. Scattered clouds.15 mph89%29.80 "Hg4 mi
5:30 PM73 °FLight rain. Fog.16 mph89%29.80 "Hg3 mi
5:00 PM73 °FLight rain. Fog.15 mph89%29.80 "Hg3 mi
4:30 PM73 °FLight rain. Scattered clouds.18 mph89%29.83 "Hg3 mi
4:00 PM75 °FLight rain. Scattered clouds.17 mph83%29.83 "Hg3 mi
3:30 PM73 °FLight rain. Scattered clouds.22 mph89%29.83 "Hg3 mi
3:03 PM75 °FLight rain. Fog.21 mph83%29.83 "Hg3 mi
3:00 PM75 °FLight rain. Scattered clouds.21 mph83%29.83 "Hg3 mi
2:30 PM75 °FLight rain. Scattered clouds.23 mph83%29.83 "Hg3 mi
2:00 PM75 °FScattered clouds.23 mph83%29.86 "Hg4 mi
1:30 PM75 °FLight rain. Scattered clouds.23 mph83%29.86 "Hg3 mi
1:00 PM75 °FLight rain. Fog.23 mph89%29.89 "Hg3 mi
12:30 PM75 °FLight rain. Scattered clouds.24 mph83%29.89 "Hg4 mi
12:00 PM73 °FLight rain. Scattered clouds.20 mph94%29.89 "Hg4 mi
11:30 AM75 °FLight rain. Scattered clouds.21 mph89%29.92 "Hg4 mi
11:00 AM77 °FSleet. Scattered clouds.20 mph83%29.92 "HgN/A
10:30 AM77 °FScattered clouds.22 mph83%29.92 "HgN/A
10:00 AM75 °FScattered clouds.25 mph89%29.92 "HgN/A
9:30 AM75 °FLight rain. Scattered clouds.20 mph89%29.92 "Hg5 mi
9:00 AM75 °FScattered clouds.20 mph89%29.92 "Hg3 mi
8:30 AM75 °FLight rain. Fog.21 mph89%29.92 "Hg3 mi
8:00 AM75 °FLight rain. Fog.18 mph89%29.92 "Hg2 mi
7:30 AM75 °FLight rain. Fog.20 mph94%29.92 "Hg2 mi
7:00 AM75 °FLight rain. Fog.17 mph94%29.92 "Hg2 mi
6:30 AM75 °FLight rain. Scattered clouds.14 mph94%29.92 "Hg3 mi
6:00 AM75 °FLight rain. Scattered clouds.15 mph94%29.89 "Hg4 mi
5:30 AM77 °FPassing clouds.16 mph83%29.89 "Hg6 mi
5:00 AM79 °FPassing clouds.7 mph79%29.89 "Hg6 mi
4:30 AM77 °FPassing clouds.3 mph89%29.89 "Hg5 mi
4:00 AM79 °FPassing clouds.3 mph84%29.89 "Hg5 mi
3:30 AM77 °FPassing clouds.3 mph89%29.89 "Hg5 mi
3:00 AM77 °FPassing clouds.5 mph83%29.89 "Hg5 mi
2:30 AM79 °FPassing clouds.3 mph79%29.89 "Hg5 mi
2:00 AM79 °FPassing clouds.9 mph79%29.89 "Hg5 mi
1:30 AM79 °FPassing clouds.6 mph84%29.89 "Hg5 mi
1:00 AM79 °FPassing clouds.7 mph79%29.89 "Hg4 mi
12:30 AM79 °FPassing clouds.8 mph79%29.89 "HgN/A
12:00 AM81 °FPassing clouds.7 mph74%29.89 "Hg6 mi
11:30 PM
Apr 22
79 °FPassing clouds.3 mph79%29.92 "Hg6 mi
11:00 PM79 °FPassing clouds.3 mph84%29.92 "Hg5 mi
10:30 PM79 °FPassing clouds.3 mph84%29.92 "Hg4 mi
10:00 PM79 °FPassing clouds.3 mph84%29.92 "Hg4 mi
9:30 PM81 °FPassing clouds.5 mph74%29.89 "Hg4 mi
9:00 PM79 °FPassing clouds.6 mph79%29.89 "Hg4 mi
Weather by CustomWeather, © 2014

See weather overview